This is the latest recevied weather packets stored in our database for station/object KI4MRC. If no packets are shown the sender has not sent any weather packets the latest 10 day(s).
| Time | Temp. | Humidity | Pressure | Rain* | Wind** | Luminosity | Snow |
|---|---|---|---|---|---|---|---|
| 1777812299 | 22.22° C | 95% | 1015.6 hPa | 0 mm | - | 89 W/m² | - |
| 1777811997 | 22.22° C | 95% | 1015.5 hPa | 0 mm | - | 62 W/m² | - |
| 1777811696 | 22.22° C | 95% | 1015.3 hPa | 0 mm | - | 77 W/m² | - |
| 1777811391 | 22.22° C | 96% | 1015.3 hPa | 0 mm | - | 54 W/m² | - |
| 1777811089 | 22.22° C | 96% | 1015.4 hPa | 0 mm | - | 62 W/m² | - |
| 1777810786 | 22.22° C | 96% | 1015.2 hPa | 0 mm | - | 76 W/m² | - |
| 1777810483 | 22.22° C | 96% | 1015.2 hPa | 0 mm | - | 73 W/m² | - |
| 1777810179 | 21.67° C | 96% | 1014.9 hPa | 0 mm | - | 67 W/m² | - |
| 1777809876 | 21.67° C | 96% | 1014.9 hPa | 0 mm | - | 68 W/m² | - |
| 1777809573 | 21.67° C | 96% | 1014.9 hPa | 0 mm | - | 49 W/m² | - |
| 1777809271 | 21.67° C | 96% | 1015 hPa | 0 mm | - | 37 W/m² | - |
| 1777808969 | 21.67° C | 96% | 1014.7 hPa | 0 mm | - | 33 W/m² | - |
| 1777808666 | 21.67° C | 96% | 1014.8 hPa | 0 mm | - | 17 W/m² | - |
| 1777808362 | 21.67° C | 96% | 1014.7 hPa | 0 mm | - | 22 W/m² | - |
| 1777808061 | 21.67° C | 96% | 1014.4 hPa | 0 mm | - | 22 W/m² | - |
| 1777807758 | 21.67° C | 95% | 1014.3 hPa | 0 mm | - | 20 W/m² | - |
| 1777807456 | 21.67° C | 95% | 1014.3 hPa | 0.51 mm | - | 18 W/m² | - |
| 1777807151 | 21.67° C | 95% | 1014.2 hPa | 0.51 mm | - | 11 W/m² | - |
| 1777806849 | 21.67° C | 94% | 1014.1 hPa | 3.56 mm | - | 10 W/m² | - |
| 1777806545 | 21.67° C | 93% | 1014.2 hPa | 6.1 mm | - | 8 W/m² | - |
| 1777806241 | 21.67° C | 92% | 1014 hPa | 3.56 mm | - | 4 W/m² | - |
| 1777805938 | 22.22° C | 92% | 1014.2 hPa | 3.05 mm | - | 2 W/m² | - |
| 1777805635 | 22.22° C | 91% | 1014.3 hPa | 3.05 mm | - | 2 W/m² | - |
| 1777805333 | 22.22° C | 90% | 1014 hPa | 0 mm | - | 1 W/m² | - |
| 1777805030 | 22.78° C | 92% | 1014 hPa | 0 mm | - | 1 W/m² | - |
* Rain latest hour (hover to see other rain measurements)
** Current wind speed in m/s (hover to see current wind gust speed)